FW6259 Weather Reports


time (UTC)temp
C
wind
direction
speed
KPH
gust
KPH
rain 1hr
cm
rain 24hr
cm
rain mn
cm
humidity
%
barometer
mb
20260508024505 6 229 8.0 22.5 0.00 0.00 0.00 53 1017.9
20260508023052 7 186 9.7 20.9 0.00 0.00 0.00 53 1017.9
20260508021609 7 152 11.3 25.7 0.00 0.00 0.00 53 1017.9
20260508020041 7 188 14.5 24.1 0.00 0.00 0.00 53 1017.9
20260508014506 7 209 6.4 20.9 0.00 0.00 0.00 54 1017.9
20260508013111 7 264 9.7 22.5 0.00 0.00 0.00 51 1018.0
20260508011601 8 290 4.8 25.7 0.00 0.00 0.00 51 1018.2
20260508010044 7 120 11.3 29.0 0.00 0.00 0.00 51 1018.1
20260508004504 7 132 11.3 33.8 0.00 0.00 0.00 50 1018.3
20260508003101 8 214 9.7 25.7 0.00 0.00 0.00 50 1018.4
20260508001549 8 148 12.9 27.4 0.00 0.00 0.00 50 1018.2
20260508000003 8 170 11.3 25.7 0.00 0.00 0.00 51 1018.5
20260507234554 8 139 9.7 24.1 0.00 0.00 0.00 52 1018.5
20260507233045 8 87 9.7 32.2 0.00 0.00 0.00 51 1018.5
20260507231502 8 214 11.3 32.2 0.00 0.00 0.00 52 1018.8
20260507230050 8 147 11.3 25.7 0.00 0.00 0.00 53 1018.9
20260507224601 8 248 11.3 32.2 0.00 0.00 0.00 52 1019.0
20260507223004 8 259 12.9 35.4 0.00 0.00 0.00 53 1019.0
20260507221555 8 127 17.7 32.2 0.00 0.00 0.00 53 1018.9
20260507220048 7 151 12.9 29.0 0.00 0.00 0.00 54 1018.9
20260507214506 8 173 20.9 35.4 0.00 0.00 0.00 53 1019.0
20260507213055 7 150 14.5 29.0 0.00 0.00 0.00 53 1019.1
20260507211553 8 179 14.5 35.4 0.00 0.00 0.00 54 1018.9
20260507210107 7 184 11.3 33.8 0.00 0.00 0.00 55 1019.0
20260507204502 8 96 9.7 37.0 0.00 0.00 0.00 55 1019.0
20260507203056 7 180 12.9 29.0 0.00 0.00 0.00 55 1019.2
20260507201547 8 117 8.0 24.1 0.00 0.00 0.00 54 1019.0
20260507200110 7 212 12.9 29.0 0.00 0.00 0.00 53 1019.0
20260507194556 7 183 12.9 30.6 0.00 0.00 0.00 55 1019.0
20260507193107 7 210 12.9 27.4 0.00 0.00 0.00 54 1019.1
20260507191515 8 158 16.1 35.4 0.00 0.00 0.00 52 1019.4
20260507190056 7 219 8.0 30.6 0.00 0.00 0.00 56 1019.2
20260507184550 7 210 17.7 33.8 0.00 0.00 0.00 55 1019.3
20260507183003 7 120 14.5 35.4 0.00 0.00 0.00 56 1019.2
20260507181555 6 162 11.3 30.6 0.00 0.00 0.00 56 1019.2
20260507180048 6 193 17.7 33.8 0.00 0.00 0.00 56 1019.5
20260507174502 7 153 11.3 32.2 0.00 0.00 0.00 57 1019.3
20260507173128 7 160 9.7 25.7 0.00 0.00 0.00 57 1019.4
20260507171551 6 179 14.5 33.8 0.00 0.00 0.00 58 1019.3
20260507170002 6 175 12.9 25.7 0.00 0.00 0.00 58 1019.3
20260507164607 6 177 11.3 32.2 0.00 0.00 0.00 60 1019.4
20260507163049 5 224 8.0 27.4 0.00 0.00 0.00 62 1019.2
20260507161559 5 125 6.4 27.4 0.00 0.00 0.00 62 1019.2
20260507160115 5 237 4.8 16.1 0.00 0.00 0.00 63 1019.3
20260507154555 5 99 6.4 19.3 0.00 0.00 0.00 63 1019.3
20260507153045 5 216 4.8 17.7 0.00 0.00 0.00 64 1019.3
20260507151600 5 243 4.8 16.1 0.00 0.00 0.00 65 1019.3
20260507150057 4 259 4.8 17.7 0.00 0.00 0.00 66 1019.2
20260507144558 4 233 6.4 17.7 0.00 0.00 0.00 67 1019.3
20260507143111 3 240 4.8 11.3 0.00 0.00 0.00 69 1019.1
20260507141613 3 226 3.2 9.7 0.00 0.00 0.00 71 1019.2
20260507140056 3 181 4.8 14.5 0.00 0.00 0.00 71 1019.4
20260507134550 3 212 3.2 11.3 0.00 0.00 0.00 71 1019.3
20260507133106 3 165 6.4 14.5 0.00 0.00 0.00 71 1019.3
20260507131551 3 165 4.8 20.9 0.00 0.00 0.00 71 1019.1
20260507130044 3 258 4.8 12.9 0.00 0.00 0.00 71 1019.1
20260507124548 3 109 3.2 12.9 0.00 0.00 0.00 72 1019.3
20260507123057 3 207 3.2 19.3 0.00 0.00 0.00 72 1019.3
20260507121557 3 225 1.6 12.9 0.00 0.00 0.00 73 1019.3
20260507120047 3 123 3.2 11.3 0.00 0.00 0.00 73 1019.4
20260507114502 3 186 1.6 16.1 0.00 0.00 0.00 72 1019.3
20260507113054 3 146 8.0 17.7 0.00 0.00 0.00 71 1019.2
20260507111557 3 195 6.4 20.9 0.00 0.00 0.00 71 1019.3
20260507104555 3 243 8.0 20.9 0.00 0.00 0.00 71 1019.3
20260507103046 3 193 9.7 22.5 0.00 0.00 0.00 72 1019.2
20260507101502 3 212 6.4 17.7 0.00 0.00 0.00 72 1019.0
20260507100051 3 144 9.7 20.9 0.00 0.00 0.00 71 1019.0
20260507094548 3 186 8.0 20.9 0.00 0.00 0.00 71 1018.9
20260507093045 3 229 9.7 20.9 0.00 0.00 0.00 70 1018.8
20260507091556 3 197 8.0 19.3 0.00 0.00 0.00 70 1018.6
20260507090052 3 193 8.0 20.9 0.00 0.00 0.00 71 1018.6
20260507084511 4 160 14.5 29.0 0.00 0.00 0.00 71 1018.4
20260507083056 4 134 9.7 22.5 0.00 0.00 0.00 71 1018.4
20260507081554 4 201 6.4 30.6 0.00 0.00 0.00 71 1018.3
20260507080003 4 178 4.8 22.5 0.00 0.00 0.00 71 1018.2
20260507074558 4 164 8.0 27.4 0.00 0.00 0.00 70 1018.1
20260507073049 4 177 9.7 22.5 0.00 0.00 0.00 71 1018.0
20260507071545 3 130 9.7 22.5 0.00 0.00 0.00 71 1018.0
20260507070057 3 195 8.0 24.1 0.00 0.00 0.00 72 1017.9
20260507064610 3 193 8.0 16.1 0.00 0.00 0.00 72 1017.8
20260507063051 3 209 8.0 22.5 0.00 0.00 0.00 71 1017.6
20260507061503 4 219 6.4 16.1 0.00 0.00 0.00 70 1017.6
20260507060058 4 182 6.4 20.9 0.00 0.00 0.00 70 1017.5
20260507054600 4 152 9.7 29.0 0.00 0.00 0.00 70 1017.4
20260507053100 5 199 9.7 22.5 0.00 0.00 0.00 69 1017.3
20260507051556 5 161 12.9 27.4 0.00 0.00 0.00 68 1017.0
20260507050046 5 152 12.9 25.7 0.00 0.00 0.00 66 1017.0
20260507044502 5 239 8.0 20.9 0.00 0.00 0.00 67 1016.7
20260507043100 5 173 8.0 22.5 0.00 0.00 0.00 66 1016.6
20260507041600 6 232 16.1 33.8 0.00 0.00 0.00 65 1016.6
20260507040045 6 151 9.7 27.4 0.00 0.00 0.00 64 1016.6
20260507034612 6 132 8.0 29.0 0.00 0.00 0.00 63 1016.5
20260507033055 6 195 11.3 22.5 0.00 0.00 0.00 63 1016.5
20260507031549 6 191 12.9 25.7 0.00 0.00 0.00 62 1016.2
20260507030158 7 155 12.9 30.6 0.00 0.00 0.00 61 1016.0